FENGYUN 1C DEB

Satellite information

Favourite Embed

Satellite Type and Status

DEBRISIN ORBIT

Key statistics

Satellite FENGYUN 1C DEB at a glance.

Uptime

9664

Days in orbit

Revolutions

≈ 14.4

Per day

Orbit

SSO

Sun Synchronous Orbit

Inclination

99.0

Latest

Satellite identification and parameters

Extended collection of information and parameters for FENGYUN 1C DEB.

Object identification

Identified? True

Debris? True

Object name: FENGYUN 1C DEB

International designator: 1999-025BMS

Object number (NORAD): 31260

Object ID (CCSDS): 31260

Country: PEOPLES REPUBLIC OF CHINA (PRC)

Current information (Y/N): Y

RCS size: SMALL

Orbital parameters

Period: 100.28 minutes

Inclination: 98.9559 deg

SMA: 7149.952 km

Apoapsis: 806.835 km

Periapsis: 736.798 km

RAAN: 191.6445 deg

Eccentricy: 0.0048977

Argument of periapsis: 77.0627 deg

Mean anomaly: 315.6775 deg

Mean motion: 14.35979017 rev/day

Mean motion (dot): 0.00003339 rev/day2

B* drag term: 0.0011497 1/REarth

Two-line elements (TLE)

Creation date: Oct. 23, 2025, 10:26 p.m.

Reference frame: TEME

Reference center: EARTH

Epoch: Oct. 23, 2025, 3:59 p.m. UTC

TLE line 0: 0 FENGYUN 1C DEB

TLE line 1: 1 31260U 99025BMS 25296.66619843 .00003339 00000-0 11497-2 0 9996

TLE line 2: 2 31260 98.9559 191.6445 0048977 77.0627 315.6775 14.35979017964754

Live tracking on map

Real-time ground track for satellite FENGYUN 1C DEB.

In-orbit conjunctions

A list of the most updated potential collisions computed for object FENGYUN 1C DEB.

Target Orbit TCA Probability of collision Miss distance Type
FENGYUN 1C DEB SSO 2025-09-15 13:22:14 0.0001236595 62.0 (m) DEBRIS
CZ-6A DEB LEO 2025-08-23 22:07:19 0.0001106283 73.0 (m) DEBRIS
CZ-6A DEB LEO 2025-08-20 00:13:25 0.000221468 184.0 (m) DEBRIS
CZ-6A DEB LEO 2024-11-21 17:11:38 0.0002631578 337.0 (m) DEBRIS
CZ-4B R/B SSO 2024-11-15 09:21:48 0.0004307838 708.0 (m) ROCKET BODY

Associated space launch

Chinese polar orbiting meteorological satellite

FENGYUN 1C DEB was lifted into orbit during the mission ‘Long March 4B | Feng Yun 1C’, on board a Long March 4B space rocket.

The launch took place on May 10, 1999, 1:33 a.m. from Launch Complex 7.

For more information about the launch, click the button.

Launch to space Long March 4B | Feng Yun 1C
Long March 4B | Feng Yun 1C

Agency: N/A

Status: Launch Successful

Launch date: May 10, 1999, 1:33 a.m. UTC

Rocket: Long March 4B

Launch pad: Launch Complex 7

Location: Taiyuan Satellite Launch Center, People's Republic of China

...

Latest news about this satellite

There are no fresh news available about this satellite. Check back as we update our databases every day.


Newsletter sign-up

Weekly statistics, charts and insights to help you stay on top of the space industry.